Location: Fort Wayne
(41.1310°N, 85.1290°W)
Time: 02:44:31
(UTC-04:00)

SR - Visible Passes

Search period start: 25 July 2014 00:00
Search period end: 04 August 2014 00:00
Orbit: 575 x 890 km, 66.7° (Epoch: 24 July)

Date Brightness Start Highest point End Pass type
(mag) Time Alt. Az. Time Alt. Az. Time Alt. Az.
25 Jul ? 22:46:22 10° NNW 22:52:22 78° WSW 22:55:45 26° SSE visible
26 Jul ? 00:32:04 10° W 00:33:34 11° W 00:35:02 10° WSW visible
26 Jul ? 21:58:11 10° NNW 22:04:08 61° ENE 22:09:00 15° SE visible
26 Jul ? 23:41:25 10° WNW 23:45:52 22° WSW 23:48:32 16° SW visible
27 Jul ? 22:52:27 10° NW 22:58:00 41° WSW 23:01:51 18° S visible
28 Jul ? 22:03:58 10° NNW 22:09:58 76° WSW 22:15:13 13° SSE visible
28 Jul ? 23:50:00 10° W 23:51:07 11° W 23:52:14 10° WSW visible
29 Jul ? 22:59:04 10° WNW 23:03:26 22° WSW 23:07:41 10° SSW visible
30 Jul ? 22:10:04 10° NW 22:15:35 40° WSW 22:20:53 10° S visible
31 Jul ? 21:21:34 10° NNW 21:27:33 74° WSW 21:33:16 10° SSE visible
31 Jul ? 23:08:09 10° W 23:08:41 10° W 23:09:13 10° WSW visible
01 Aug ? 22:16:43 10° WNW 22:21:00 21° WSW 22:25:10 10° SSW visible
02 Aug ? 21:27:41 10° NW 21:33:10 39° WSW 21:38:24 10° S visible
